Regional Weather Roundup
Issued by NWS

Home | Current Version | Previous Version | Graphics & Text | Print | Product List | Glossary On
Versions: 1 2 3 4 5 6 7 8 9 10 11 12 13 14 15 16 17 18 19 20 21 22 23 24 25 26 27 28 29 30 31 32 33 34 35 36 37 38 39 40 41 42 43 44 45 46 47 48 49 50
000
ASUS43 KOAX 291310
RWRNE

WEATHER ROUNDUP FOR NEBRASKA
NATIONAL WEATHER SERVICE OMAHA NE
800 AM CDT WED JUL 29 2015

NOTES: SATELLITE DATA IS BEING USED TO AUGMENT CLOUD COVER ABOVE
       12000 FEET.
       "FAIR" INDICATES FEW OR NO CLOUDS BELOW 12,000 FEET WITH NO
       SIGNIFICANT WEATHER AND/OR OBSTRUCTIONS TO VISIBILITY.

  * THESE STATIONS DO NOT REPORT WEATHER SUCH AS RAIN...SNOW OR FOG.

NEZ001>004-019>022-054>056-291400-
NEBRASKA PANHANDLE

CITY           SKY/WX    TMP DP  RH WIND       PRES   REMARKS
SCOTTSBLUFF    PTSUNNY   52  47  83 CALM      30.33R
ALLIANCE       SUNNY     47  43  86 MISG      30.32R
CHADRON        SUNNY     49  43  80 W5        30.30R
KIMBALL        MOSUNNY   51  44  76 SE7       30.33S
SIDNEY         MOSUNNY   56  45  66 SE6       30.34R
$$

NEZ057>060-069>072-079>082-291400-
SOUTHWEST NEBRASKA

CITY           SKY/WX    TMP DP  RH WIND       PRES   REMARKS
NORTH PLATTE   CLOUDY    59  52  77 CALM      30.30R
IMPERIAL       MOSUNNY   58  50  75 CALM      30.30R
LEXINGTON      MOSUNNY   58  55  90 W5        30.28R
MCCOOK         MOSUNNY   56  53  90 CALM      30.28R
OGALLALA       PTSUNNY   60  49  67 E6        30.30S
$$

NEZ005>010-023>029-035>040-094-291400-
NORTH CENTRAL NEBRASKA

CITY           SKY/WX    TMP DP  RH WIND       PRES   REMARKS
VALENTINE      SUNNY     54  47  77 SW7       30.24R
AINSWORTH      SUNNY     60  50  70 S8        30.24R
BROKEN BOW     SUNNY     59  53  80 CALM      30.26R
O`NEILL        SUNNY     58  54  85 SW5       30.22R
ORD            SUNNY     57  53  86 NW3       30.23R
THEDFORD       MOSUNNY   54  51  90 CALM      30.29R
$$

NEZ041-046>049-061>064-073>077-083>087-291400-
SOUTH CENTRAL NEBRASKA

CITY           SKY/WX    TMP DP  RH WIND       PRES   REMARKS
GRAND ISLAND   MOSUNNY   62  56  80 W5        30.24R
AURORA         MOSUNNY   61  59  94 CALM      30.22R
HASTINGS       MOSUNNY   61  57  87 CALM      30.24R
HEBRON         PTSUNNY   63  59  87 CALM      30.20R
HOLDREGE       PTSUNNY   59  55  88 W3        30.28R
KEARNEY *      MOSUNNY   61  54  77 W5        30.25R
YORK           MOSUNNY   63  59  88 CALM      30.21R
$$

NEZ011>018-030>034-042>045-291400-
NORTHEAST NEBRASKA

CITY           SKY/WX    TMP DP  RH WIND       PRES   REMARKS
NORFOLK        SUNNY     62  56  80 W3        30.19R
ALBION         SUNNY     57  53  88 CALM      30.22R
BLAIR          MOSUNNY   63  59  87 CALM      30.17R
COLUMBUS *     SUNNY     63  54  72 CALM      30.20R
FREMONT        SUNNY     64  59  83 W3        30.18R
TEKAMAH        SUNNY     65  61  87 CALM      30.15R
WAYNE          SUNNY     59  56  90 CALM      30.18R
$$

NEZ050>053-065>068-078-088>093-291400-
SOUTHEAST NEBRASKA

CITY           SKY/WX    TMP DP  RH WIND       PRES   REMARKS
LINCOLN        PTSUNNY   64  61  90 CALM      30.18R
OMAHA EPPLEY   PTSUNNY   66  64  93 N3        30.16R
BEATRICE       CLOUDY    64  62  93 NE5       30.17S
FALLS CITY     CLOUDY    74  71  91 CALM      30.13R
NEBRASKA CITY  PTSUNNY   67  62  84 N5        30.16R
PLATTSMOUTH    MOSUNNY   67  64  91 CALM      30.17R
$$

NEZ044-045-051>053-067-291400-
OMAHA AREA

CITY           SKY/WX    TMP DP  RH WIND       PRES   REMARKS
OMAHA EPPLEY   PTSUNNY   66  64  93 N3        30.16R
BLAIR          MOSUNNY   63  59  87 CALM      30.17R
FREMONT        SUNNY     64  59  83 W3        30.18R
MILLARD        MOSUNNY   68  62  80 NW5       30.16R
OFFUTT AFB     MOSUNNY   67  64  88 W2        30.15R
PLATTSMOUTH    MOSUNNY   67  64  91 CALM      30.17R
WAHOO          FAIR      64  59  84 NW6       30.17R
$$



USA.gov is the U.S. government's official web portal to all federal, state and local government web resources and services.